Regional Weather Roundup
Issued by NWS

Home | Current Version | Previous Version | Text Only | Print | Product List | Glossary On
Versions: 1 2 3 4 5 6 7 8 9 10 11 12 13 14 15 16 17 18 19 20 21 22 23 24 25 26 27 28 29 30 31 32 33 34 35 36 37 38 39 40 41 42 43 44 45 46 47 48 49 50
000
ASUS45 KABQ 310510
RWRNM
NEW MEXICO REGIONAL WEATHER ROUNDUP
NATIONAL WEATHER SERVICE ALBUQUERQUE NM
1100 PM MDT SAT JUL 30 2016

NOTE: "FAIR" MEANS FEW OR NO CLOUDS BELOW 12,000 FEET AGL WITH NO
       SIGNIFICANT WEATHER OR OBSTRUCTIONS TO VISION.

      THIS PRODUCT IS RELEASED AS TWO VERSIONS.  ONE VERSION NEAR
      THE TOP OF THE HOUR CONTAINING PRELIMINARY DATA FROM ALBUQUERQUE
      AND OTHER STATIONS.  A FINAL VERSION WITH ADDITIONAL DATA IS
      ISSUED ABOUT 10 MINUTES AFTER THE HOUR.

NMZ501-503-504-510>518-310600-
NORTHWEST PLATEAU/NORTHCENTRAL MOUNTAINS

CITY           SKY/WX    TMP DP  RH WIND       PRES   REMARKS
FARMINGTON     FAIR      79  45  29 S6        30.09S
LOS ALAMOS     MOCLDY    65  48  55 S12       30.33S
SANTA FE       FAIR      67  52  58 SE14      30.27R
TAOS           FAIR      57  37  47 SE6       30.30R
ANGEL FIRE     FAIR      48  46  91 CALM      30.40R

$$
NMZ402-403-502-505>509-310600-
WESTCENTRAL MOUNTAINS/SOUTHWEST MOUNTAINS

CITY           SKY/WX    TMP DP  RH WIND       PRES   REMARKS
GALLUP         FAIR      70  49  47 S14       30.22R
GRANTS         LGT RAIN  71  49  45 SE10      30.28R
SILVER CITY    FAIR      68  55  62 N8        30.12S

$$
NMZ407-409-411-412-310600-
SOUTHERN DESERTS

CITY           SKY/WX    TMP DP  RH WIND       PRES   REMARKS
LORDSBURG      FAIR      79  52  38 W10       30.02R
DEMING         FAIR      81  52  36 N6        30.02R
LAS CRUCES     FAIR      83  49  30 S9        30.05R
HOLLOMAN AFB   MOCLDY    80  52  36 SE2       29.99R
ALAMOGORDO     FAIR      81  50  34 SE8       30.02R
T OR C         FAIR      81  51  35 NW8       30.06R

$$
NMZ519>523-310600-
CENTRAL VALLEYS/CENTRAL HIGHLANDS

CITY           SKY/WX    TMP DP  RH WIND       PRES   REMARKS
ALBUQUERQUE    LGT RAIN  66  58  75 SE18      30.20F
DOUBLE EAGLE   MOCLDY    64  57  77 SE18      30.22S
MORIARTY ARPT  RAIN      63  55  77 W3        30.33R
CLINES CORNERS LGT RAIN  59  50  72 S18G25    30.33S
BELEN          TSTM      65  58  79 NE16G24   30.19R
SOCORRO        FAIR      75  49  39 NW23G36   30.13R

$$
NMZ524>526-539-540-310600-
SOUTHCENTRAL MOUNTAINS

CITY           SKY/WX    TMP DP  RH WIND       PRES   REMARKS
RUIDOSO          N/A     68  48  49 SE6       30.29R

$$
NMZ527>531-310600-
NORTHEAST HIGHLANDS/NORTHEAST PLAINS

CITY           SKY/WX    TMP DP  RH WIND       PRES   REMARKS
LAS VEGAS      FAIR      62  50  64 SW7       30.30S
RATON          FAIR      58  55  90 N6        30.21S
CLAYTON        LGT RAIN  67  61  81 S13       30.14S

$$
NMZ532>537-310600-
EASTCENTRAL PLAINS

CITY           SKY/WX    TMP DP  RH WIND       PRES   REMARKS
TUCUMCARI      TSTM      73  59  61 NW15      30.14R
CANNON AFB     NOT AVBL
CLOVIS AIRPORT FAIR      72  55  56 S7        30.08S

$$
NMZ028-029-538-310600-
SOUTHEAST PLAINS

CITY           SKY/WX    TMP DP  RH WIND       PRES   REMARKS
ROSWELL        FAIR      82  53  36 SE7       30.01R
ARTESIA        FAIR      82  57  42 SE9       30.01R
CARLSBAD       FAIR      83  56  39 SE12      29.98R
HOBBS          FAIR      81  57  44 SE10      30.06R


$$




USA.gov is the U.S. government's official web portal to all federal, state and local government web resources and services.